Location: Caserta
(41.0670°N, 14.3330°E)
Time: 12:50:53
(UTC+02:00)

STARLINK-1329 - Pass Details

Date: 05 October 2020
Orbit: 549 x 550 km, 53.0° (Epoch: 21 October)

Event Time Altitude Azimuth Distance (km) Brightness Sun altitude
Exits shadow 05:10:46 18° 340° (NNW) 1,369 5.5 -22.0°
Maximum altitude 05:11:05 19° 347° (NNW) 1,362 5.6 -21.9°
Drops below altitude 10° 05:14:03 10° 32° (NNE) 1,826 6.9 -21.4°
Sets 05:16:51 0° 51° (NE) 2,721 8.3 -20.9°
